KB4ZQC Weather Reports


time (UTC)temp
F
wind
direction
speed
knots
gust
knots
rain 1hr
in
rain 24hr
in
rain mn
in
humidity
%
barometer
mb
20200531072829 77 86 0.0 0.0 0.00 0.00 0.00 90 1015.0
20200531072315 77 86 0.0 0.0 0.00 0.00 0.00 91 1015.2
20200531071817 77 86 0.0 0.0 0.00 0.00 0.00 91 1015.2
20200531071318 77 86 0.0 0.0 0.00 0.00 0.00 90 1015.3
20200531070819 77 86 0.0 0.0 0.00 0.00 0.00 90 1015.3
20200531070320 77 86 0.0 0.0 0.00 0.00 0.00 90 1015.3
20200531065818 77 86 0.0 0.0 0.00 0.00 0.00 90 1015.4
20200531065333 77 86 0.0 0.0 0.00 0.00 0.00 90 1015.5
20200531064830 77 86 0.0 0.0 0.00 0.00 0.00 90 1015.6
20200531064327 77 86 0.0 0.0 0.00 0.00 0.00 90 1015.6
20200531063825 77 86 0.0 0.0 0.00 0.00 0.00 90 1015.7
20200531063333 77 86 0.0 0.0 0.00 0.00 0.00 90 1015.8
20200531062816 77 86 0.0 0.0 0.00 0.00 0.00 90 1015.7
20200531062317 77 86 0.0 0.0 0.00 0.00 0.00 90 1015.7
20200531061820 77 86 0.0 0.0 0.00 0.00 0.00 90 1015.8
20200531061320 77 86 0.0 0.0 0.00 0.00 0.00 90 1015.8
20200531060817 77 86 0.0 0.0 0.00 0.01 0.00 90 1015.9
20200531060334 77 86 0.0 0.0 0.00 0.01 0.00 90 1016.0
20200531055824 77 86 0.0 0.0 0.00 0.01 0.00 90 1016.0
20200531055332 77 86 0.0 0.0 0.00 0.01 0.00 90 1016.1
20200531054846 77 86 0.0 0.0 0.00 0.01 0.00 90 1016.0
20200531054313 77 86 0.0 0.0 0.00 0.01 0.00 90 1016.1
20200531053819 77 86 0.0 0.0 0.00 0.01 0.00 90 1016.2
20200531053321 77 86 0.0 0.0 0.00 0.01 0.00 90 1016.2
20200531052823 77 86 0.0 0.0 0.00 0.01 0.00 90 1016.3
20200531052325 77 86 0.0 0.0 0.00 0.01 0.00 89 1016.4
20200531051826 77 86 0.0 0.0 0.00 0.01 0.00 89 1016.5
20200531051324 77 84 0.0 0.0 0.00 0.01 0.00 89 1016.6
20200531050817 78 86 0.0 0.0 0.00 0.01 0.00 88 1016.7
20200531050331 78 86 0.0 0.0 0.00 0.01 0.00 88 1016.7
20200531045817 78 86 0.0 0.0 0.00 0.01 0.00 88 1016.8
20200531045313 79 84 0.0 0.0 0.00 0.01 0.00 87 1016.8
20200531044813 79 86 0.0 0.0 0.00 0.01 0.00 87 1016.7
20200531044330 79 119 0.0 0.0 0.00 0.01 0.00 87 1016.7
20200531043828 79 118 0.0 0.0 0.00 0.01 0.00 86 1016.7
20200531043328 79 118 0.0 0.0 0.00 0.01 0.00 86 1016.7
20200531042827 79 119 0.0 0.0 0.00 0.01 0.00 86 1016.7
20200531042328 79 124 0.0 0.0 0.00 0.01 0.00 86 1016.8
20200531041836 80 126 0.0 0.9 0.00 0.01 0.00 85 1016.8
20200531041333 80 126 0.0 0.9 0.00 0.01 0.00 85 1016.8
20200531040816 80 114 0.0 0.0 0.00 0.01 0.01 85 1016.9
20200531040317 80 105 0.0 0.0 0.00 0.01 0.01 84 1017.0
20200531035820 80 119 0.0 0.9 0.00 0.01 0.01 84 1016.9
20200531035320 80 79 0.0 0.9 0.00 0.01 0.01 84 1016.9
20200531034822 80 117 0.0 0.9 0.00 0.01 0.01 84 1017.0
20200531034325 80 105 0.0 1.7 0.00 0.01 0.01 84 1017.1
20200531033827 80 115 0.0 1.7 0.00 0.01 0.01 83 1017.1
20200531033330 80 112 0.0 0.9 0.00 0.01 0.01 83 1017.2
20200531032813 81 124 0.0 1.7 0.00 0.01 0.01 83 1017.2
20200531032315 81 115 0.0 1.7 0.00 0.01 0.01 83 1017.3
20200531031818 81 134 0.0 1.7 0.00 0.01 0.01 83 1017.3
20200531031318 81 98 0.0 1.7 0.00 0.01 0.01 83 1017.2
20200531030821 81 80 0.0 2.6 0.00 0.01 0.01 84 1017.3
20200531030323 81 103 0.0 2.6 0.00 0.01 0.01 84 1017.2
20200531025827 81 84 0.0 3.5 0.00 0.01 0.01 84 1017.2
20200531025328 81 103 0.0 0.0 0.00 0.01 0.01 84 1017.1
20200531024830 81 112 0.0 2.6 0.00 0.01 0.01 83 1017.0
20200531024332 81 77 0.0 2.6 0.00 0.01 0.01 83 1017.0
20200531023839 81 114 0.0 1.7 0.00 0.01 0.01 83 1017.0
20200531023321 81 82 0.0 1.7 0.00 0.01 0.01 83 1017.1
20200531022821 81 75 0.0 3.5 0.00 0.01 0.01 83 1017.1
20200531022320 81 91 0.9 3.5 0.00 0.01 0.01 83 1017.0
20200531021820 81 114 0.0 2.6 0.00 0.01 0.01 83 1016.9
20200531021321 81 77 0.0 3.5 0.00 0.01 0.01 83 1016.9
20200531020823 81 76 0.0 3.5 0.00 0.01 0.01 83 1016.9
20200531020323 81 100 0.0 3.5 0.00 0.01 0.01 83 1016.8
20200531015820 81 79 0.9 3.5 0.00 0.01 0.01 83 1016.7
20200531015333 81 63 0.0 1.7 0.00 0.01 0.01 83 1016.6
20200531014833 82 125 0.0 2.6 0.00 0.01 0.01 83 1016.6
20200531014332 82 62 0.9 2.6 0.00 0.01 0.01 82 1016.5
20200531013830 82 84 0.0 3.5 0.00 0.01 0.01 83 1016.4
20200531013328 82 113 0.0 3.5 0.00 0.01 0.01 83 1016.3
20200531012826 82 124 0.0 5.2 0.00 0.01 0.01 83 1016.1
20200531012322 82 109 0.9 5.2 0.00 0.01 0.01 82 1016.1
20200531011821 82 83 0.9 5.2 0.00 0.01 0.01 83 1016.2
20200531011322 82 105 0.9 5.2 0.00 0.01 0.01 82 1016.1
20200531010822 82 120 0.9 5.2 0.00 0.01 0.01 82 1016.1
20200531010324 82 86 1.7 4.3 0.00 0.01 0.01 82 1016.1
20200531005820 82 100 0.0 1.7 0.00 0.01 0.01 82 1015.9
20200531005320 82 100 0.0 0.0 0.00 0.01 0.01 82 1016.0
20200531004820 82 100 0.0 5.2 0.00 0.01 0.01 81 1015.9
20200531004322 82 72 0.0 5.2 0.00 0.01 0.01 81 1015.9
20200531003824 82 89 0.9 2.6 0.00 0.01 0.01 80 1015.9
20200531003326 82 104 0.0 3.5 0.00 0.01 0.01 80 1015.8
20200531002828 82 121 0.0 6.1 0.00 0.01 0.01 79 1015.7
20200531002315 82 61 2.6 6.1 0.00 0.01 0.01 79 1015.6
20200531001852 83 84 1.7 6.1 0.00 0.01 0.01 79 1015.6
20200531001323 83 68 1.7 5.2 0.00 0.01 0.01 78 1015.4
20200531000820 83 125 0.0 4.3 0.00 0.01 0.01 76 1015.3
20200531000321 83 74 1.7 6.1 0.00 0.01 0.01 76 1015.2
20200530235824 83 76 0.9 6.1 0.00 0.01 0.01 76 1015.0
20200530235317 83 95 0.9 4.3 0.00 0.01 0.01 78 1015.0
20200530234819 83 91 0.9 4.3 0.00 0.01 0.01 79 1015.0
20200530234332 83 79 0.9 5.2 0.00 0.01 0.01 79 1015.0
20200530233813 83 78 1.7 5.2 0.00 0.01 0.01 80 1014.9
20200530233315 83 91 0.9 4.3 0.00 0.01 0.01 79 1014.9
20200530232815 83 108 0.9 4.3 0.00 0.01 0.01 78 1014.8
20200530232314 83 98 0.9 5.2 0.00 0.01 0.01 77 1014.7
20200530231814 84 70 1.7 5.2 0.00 0.01 0.01 76 1014.7
20200530231316 84 88 1.7 6.1 0.00 0.01 0.01 75 1014.6
20200530230816 84 61 1.7 4.3 0.00 0.01 0.01 73 1014.6
20200530230318 84 79 0.0 4.3 0.00 0.01 0.01 73 1014.5
20200530225817 84 119 0.0 4.3 0.00 0.01 0.01 72 1014.5
20200530225318 84 111 1.7 7.0 0.00 0.01 0.01 72 1014.6
20200530224821 84 67 1.7 7.0 0.00 0.01 0.01 72 1014.6
20200530224323 84 68 1.7 6.1 0.00 0.01 0.01 72 1014.7
20200530223824 85 75 2.6 5.2 0.00 0.01 0.01 72 1014.7
20200530223338 85 53 2.6 5.2 0.00 0.01 0.01 73 1014.7
20200530222832 85 80 2.6 6.1 0.00 0.01 0.01 73 1014.8
20200530222331 86 89 2.6 6.1 0.00 0.01 0.01 72 1014.8
20200530221832 86 89 2.6 7.0 0.00 0.01 0.01 70 1014.8
20200530221333 87 143 2.6 7.0 0.00 0.01 0.01 69 1014.7
20200530220815 87 88 2.6 5.2 0.00 0.01 0.01 69 1014.7
20200530220318 87 127 1.7 6.1 0.00 0.01 0.01 70 1014.8
20200530215816 87 112 2.6 7.8 0.00 0.01 0.01 71 1014.7
20200530215331 87 77 3.5 7.8 0.00 0.01 0.01 71 1014.6
20200530214832 87 148 3.5 7.0 0.00 0.01 0.01 71 1014.7
20200530214330 88 116 1.7 7.0 0.00 0.01 0.01 70 1014.6
20200530213829 87 67 3.5 7.8 0.00 0.01 0.01 68 1014.5
20200530213331 88 83 3.5 7.8 0.00 0.01 0.01 66 1014.6
20200530212813 88 88 2.6 6.1 0.00 0.01 0.01 67 1014.5
20200530212313 88 97 1.7 8.7 0.00 0.01 0.01 65 1014.5
20200530211812 88 62 3.5 8.7 0.00 0.01 0.01 66 1014.5
20200530211313 88 95 1.7 7.0 0.00 0.01 0.01 65 1014.6
20200530210832 88 85 2.6 7.0 0.00 0.01 0.01 65 1014.5
20200530210330 88 63 1.7 7.8 0.00 0.01 0.01 65 1014.5
20200530205820 88 75 4.3 8.7 0.00 0.01 0.01 65 1014.5
20200530205336 89 103 2.6 9.6 0.00 0.01 0.01 64 1014.6
20200530204827 89 69 2.6 7.8 0.00 0.01 0.01 63 1014.6
20200530204325 89 75 1.7 8.7 0.00 0.01 0.01 63 1014.7
20200530203828 89 76 1.7 7.0 0.00 0.01 0.01 64 1014.7
20200530203331 89 59 1.7 7.0 0.00 0.01 0.01 63 1014.8
20200530202813 89 122 3.5 7.8 0.00 0.01 0.01 63 1014.9
20200530202316 89 81 3.5 8.7 0.00 0.01 0.01 63 1014.9
20200530201818 89 103 1.7 7.0 0.00 0.01 0.01 64 1014.9
20200530201427 90 82 2.6 7.0 0.00 0.01 0.01 62 1015.0
20200530200820 90 77 4.3 7.0 0.00 0.01 0.01 60 1015.1
20200530200321 91 117 0.9 5.2 0.00 0.01 0.01 61 1015.1
20200530195821 91 89 0.9 4.3 0.00 0.01 0.01 58 1015.2
20200530195322 91 105 0.9 4.3 0.00 0.01 0.01 59 1015.3
20200530194828 91 211 0.0 4.3 0.00 0.01 0.01 61 1015.3
20200530194329 91 65 0.0 6.1 0.00 0.01 0.01 62 1015.3
20200530193831 91 69 1.7 6.1 0.00 0.01 0.01 60 1015.4
20200530193328 91 81 1.7 6.1 0.00 0.01 0.01 60 1015.5
20200530192828 90 160 0.9 6.1 0.00 0.01 0.01 60 1015.5
20200530192329 90 70 1.7 5.2 0.00 0.01 0.01 62 1015.4
20200530191828 90 109 2.6 8.7 0.00 0.01 0.01 63 1015.5
20200530191328 89 70 0.9 8.7 0.00 0.01 0.01 64 1015.5
20200530190827 89 113 1.7 5.2 0.00 0.01 0.01 63 1015.5
20200530190324 89 51 0.0 7.0 0.00 0.01 0.01 65 1015.6
20200530185822 89 42 2.6 7.8 0.00 0.01 0.01 63 1015.6
20200530185323 89 79 2.6 7.8 0.00 0.01 0.01 64 1015.6
20200530184823 90 127 2.6 7.0 0.00 0.01 0.01 65 1015.7
20200530184330 89 76 1.7 7.0 0.00 0.01 0.01 66 1015.8
20200530183830 89 118 2.6 6.1 0.00 0.01 0.01 65 1015.9
20200530183329 89 104 2.6 7.8 0.00 0.01 0.01 65 1015.9
20200530182843 90 72 2.6 7.8 0.00 0.01 0.01 65 1015.9
20200530182329 90 75 1.7 7.0 0.00 0.01 0.01 65 1015.9
20200530181831 90 82 4.3 8.7 0.00 0.01 0.01 65 1016.0
20200530181327 89 210 2.6 8.7 0.00 0.01 0.01 67 1016.0
20200530180836 90 63 1.7 6.1 0.00 0.01 0.01 66 1015.9
20200530180329 90 136 0.9 7.0 0.00 0.01 0.01 68 1016.0
20200530175828 89 86 3.5 7.8 0.00 0.01 0.01 67 1016.0
20200530175314 89 194 1.7 7.8 0.00 0.01 0.01 66 1016.1
20200530174816 89 86 1.7 5.2 0.00 0.01 0.01 66 1016.1
20200530174318 90 82 1.7 6.1 0.00 0.01 0.01 65 1016.1
20200530173821 90 87 2.6 7.0 0.00 0.01 0.01 66 1016.1
20200530173318 90 83 3.5 9.6 0.00 0.01 0.01 65 1016.2
20200530172821 90 101 3.5 10.4 0.00 0.01 0.01 65 1016.3
20200530172321 89 174 1.7 7.8 0.00 0.01 0.01 68 1016.3
20200530171820 89 112 4.3 7.8 0.00 0.01 0.01 66 1016.4
20200530171317 89 120 4.3 7.8 0.00 0.01 0.01 66 1016.4
20200530170817 90 108 3.5 7.0 0.00 0.01 0.01 66 1016.5
20200530170318 89 129 3.5 7.0 0.00 0.01 0.01 66 1016.5
20200530165818 89 66 2.6 7.8 0.00 0.01 0.01 67 1016.6
20200530165318 89 145 3.5 7.8 0.00 0.01 0.01 67 1016.6
20200530164824 89 76 0.9 7.8 0.00 0.01 0.01 66 1016.7
20200530164320 89 283 1.7 7.0 0.00 0.01 0.01 69 1016.7
20200530163820 89 185 3.5 7.0 0.00 0.01 0.01 68 1016.8
20200530163320 89 59 1.7 8.7 0.00 0.01 0.01 70 1016.7
20200530162830 89 68 2.6 8.7 0.00 0.01 0.01 68 1016.7
20200530162327 90 266 1.7 6.1 0.00 0.01 0.01 67 1016.7
20200530161828 90 55 0.9 7.0 0.00 0.01 0.01 68 1016.7
20200530161328 89 143 0.0 7.0 0.00 0.01 0.01 72 1016.7
20200530160827 89 102 2.6 6.1 0.00 0.01 0.01 69 1016.7
20200530160325 89 139 2.6 7.0 0.00 0.01 0.01 70 1016.8
20200530155822 89 120 3.5 9.6 0.00 0.01 0.01 68 1016.8
20200530155332 88 208 1.7 9.6 0.00 0.01 0.01 69 1016.8
20200530154828 89 96 1.7 7.0 0.00 0.01 0.01 67 1016.8
20200530154330 88 122 1.7 4.3 0.00 0.01 0.01 67 1016.9
20200530153832 89 97 2.6 5.2 0.00 0.01 0.01 65 1017.0
20200530153315 89 113 0.9 5.2 0.00 0.01 0.01 64 1017.0
20200530152818 89 56 2.6 6.1 0.00 0.01 0.01 63 1017.0
20200530152329 89 271 0.0 6.1 0.00 0.01 0.01 64 1017.0
20200530151823 89 82 0.9 4.3 0.00 0.01 0.01 64 1017.1
20200530151318 88 88 0.9 6.1 0.00 0.01 0.01 69 1017.1
20200530150828 88 62 0.9 6.1 0.00 0.01 0.01 69 1017.1
20200530150330 88 229 0.9 4.3 0.00 0.01 0.01 70 1017.1
20200530145831 87 70 0.9 4.3 0.00 0.01 0.01 68 1017.1
20200530145321 87 118 0.0 5.2 0.00 0.01 0.01 70 1017.1
20200530144829 87 95 0.0 6.1 0.00 0.01 0.01 72 1017.2
20200530144317 87 68 0.9 6.1 0.00 0.01 0.01 72 1017.1
20200530143819 87 84 2.6 5.2 0.00 0.01 0.01 71 1017.1
20200530143320 86 40 0.0 4.3 0.00 0.01 0.01 73 1017.1
20200530142835 86 110 0.0 3.5 0.00 0.01 0.01 72 1017.1
20200530142345 86 94 0.0 5.2 0.00 0.01 0.01 73 1017.1
20200530141824 86 103 1.7 5.2 0.00 0.01 0.01 71 1017.2
20200530141335 87 82 2.6 5.2 0.00 0.01 0.01 71 1017.2
20200530140837 87 123 0.9 4.3 0.00 0.01 0.01 69 1017.2
20200530140328 87 142 1.7 4.3 0.00 0.01 0.01 69 1017.2
20200530135825 87 49 0.0 2.6 0.00 0.01 0.01 71 1017.3
20200530135318 87 73 0.0 4.3 0.00 0.01 0.01 71 1017.2
20200530134820 87 109 0.9 4.3 0.00 0.01 0.01 71 1017.2
20200530134319 86 113 0.0 4.3 0.00 0.01 0.01 73 1017.2
20200530133817 86 94 0.0 2.6 0.00 0.01 0.01 75 1017.2
20200530133318 85 111 0.0 5.2 0.00 0.01 0.01 76 1017.2
20200530132817 85 73 0.9 5.2 0.00 0.01 0.01 75 1017.2
20200530132320 85 79 1.7 3.5 0.00 0.01 0.01 76 1017.2
20200530131820 85 77 0.9 3.5 0.00 0.01 0.01 78 1017.2
20200530131318 85 131 0.9 4.3 0.00 0.01 0.01 78 1017.2
20200530130818 85 108 0.0 4.3 0.00 0.01 0.01 79 1017.2
20200530130320 84 106 0.9 5.2 0.00 0.01 0.01 79 1017.2
20200530125820 84 134 1.7 5.2 0.00 0.01 0.01 79 1017.2
20200530125330 84 136 0.0 4.3 0.00 0.01 0.01 81 1017.1
20200530124831 83 97 0.0 4.3 0.00 0.01 0.01 82 1017.1
20200530124314 83 89 0.0 3.5 0.00 0.01 0.01 83 1017.0
20200530123817 82 121 0.9 3.5 0.00 0.01 0.01 83 1017.1
20200530123321 81 112 0.0 1.7 0.00 0.01 0.01 85 1017.1
20200530122822 81 109 0.0 1.7 0.00 0.01 0.01 84 1017.1
20200530122323 81 86 0.0 1.7 0.00 0.01 0.01 84 1017.1
20200530121819 81 95 0.0 3.5 0.00 0.01 0.01 84 1017.1
20200530121332 82 76 0.9 3.5 0.00 0.01 0.01 84 1017.1
20200530120824 82 97 0.0 1.7 0.00 0.01 0.01 84 1017.1
20200530120322 82 108 0.0 2.6 0.00 0.01 0.01 85 1017.0
20200530115835 81 111 0.9 2.6 0.00 0.01 0.01 85 1016.9
20200530115322 81 105 0.0 2.6 0.00 0.01 0.01 86 1016.7
20200530114824 81 84 0.9 2.6 0.00 0.01 0.01 86 1016.6
20200530114325 81 82 0.0 1.7 0.00 0.01 0.01 86 1016.6
20200530113828 81 84 0.0 0.9 0.00 0.01 0.01 86 1016.7
20200530113330 81 96 0.0 0.9 0.00 0.01 0.01 87 1016.6
20200530112833 80 105 0.0 0.9 0.00 0.01 0.01 87 1016.6
20200530112335 80 118 0.0 0.9 0.00 0.01 0.01 88 1016.6
20200530111831 79 110 0.0 0.0 0.00 0.01 0.01 89 1016.4
20200530111313 79 100 0.0 0.0 0.00 0.01 0.01 89 1016.4
20200530110816 78 103 0.0 0.0 0.00 0.01 0.01 90 1016.4
20200530110318 78 103 0.0 0.0 0.00 0.01 0.01 90 1016.3
20200530105820 78 105 0.0 0.0 0.00 0.01 0.01 90 1016.4
20200530105322 77 108 0.0 0.0 0.00 0.01 0.01 91 1016.4
20200530104820 77 108 0.0 0.0 0.00 0.01 0.01 91 1016.4
20200530104404 78 109 0.0 0.0 0.00 0.01 0.01 91 1016.4
20200530103824 78 109 0.0 0.0 0.00 0.01 0.01 90 1016.4
20200530103327 78 108 0.0 0.0 0.00 0.01 0.01 90 1016.3
20200530102830 78 108 0.0 0.9 0.00 0.01 0.01 90 1016.3
20200530102415 78 107 0.0 0.9 0.00 0.01 0.01 90 1016.3
20200530101815 78 114 0.0 0.0 0.00 0.01 0.01 90 1016.2
20200530101337 78 151 0.0 0.0 0.00 0.01 0.01 90 1016.3
20200530100824 78 150 0.0 0.0 0.00 0.01 0.01 90 1016.1
20200530100331 78 150 0.0 0.0 0.00 0.01 0.01 90 1015.9
20200530095830 78 146 0.0 0.9 0.00 0.01 0.01 89 1015.8
20200530095332 79 194 0.0 0.9 0.00 0.01 0.01 89 1015.7
20200530094815 79 144 0.0 1.7 0.00 0.01 0.01 89 1015.6
20200530094318 78 134 0.0 1.7 0.00 0.01 0.01 89 1015.6
20200530093829 79 146 0.0 1.7 0.00 0.01 0.01 89 1015.7
20200530093332 79 143 0.0 2.6 0.00 0.01 0.01 89 1015.6
20200530092823 79 169 0.9 2.6 0.00 0.01 0.01 89 1015.6
20200530092337 79 134 0.9 3.5 0.00 0.01 0.01 89 1015.7
20200530091826 79 150 0.0 3.5 0.00 0.01 0.01 90 1015.8
20200530091325 79 156 0.0 3.5 0.00 0.01 0.01 90 1015.9
20200530090822 78 146 0.9 3.5 0.00 0.01 0.01 91 1016.0
20200530090320 78 148 0.0 1.7 0.00 0.01 0.01 91 1015.9
20200530085815 78 156 0.0 1.7 0.00 0.01 0.01 91 1015.9
20200530085333 78 149 0.0 0.9 0.00 0.01 0.01 91 1016.0
20200530084832 78 142 0.0 1.7 0.00 0.01 0.01 91 1016.0
20200530084331 78 146 0.0 5.2 0.00 0.01 0.01 91 1016.0
20200530083828 78 149 0.0 5.2 0.00 0.01 0.01 91 1016.1
20200530083319 78 160 0.0 0.9 0.00 0.01 0.01 92 1016.1
20200530082821 78 142 0.0 0.9 0.00 0.01 0.01 92 1016.1
20200530082322 78 146 0.0 0.0 0.00 0.01 0.01 92 1016.1
20200530081820 78 146 0.0 0.0 0.00 0.01 0.01 92 1016.2
20200530081321 78 148 0.0 0.0 0.00 0.01 0.01 92 1016.2
20200530080823 78 145 0.0 0.0 0.00 0.01 0.01 92 1016.3
20200530080322 78 144 0.0 0.0 0.00 0.01 0.01 92 1016.4
20200530075831 78 143 0.0 0.0 0.00 0.01 0.01 92 1016.5
20200530075329 78 143 0.0 0.0 0.00 0.01 0.01 92 1016.5
20200530074815 78 142 0.0 0.0 0.00 0.01 0.01 92 1016.5
20200530074317 78 143 0.0 0.0 0.00 0.01 0.01 92 1016.6
20200530073819 78 143 0.0 0.9 0.00 0.01 0.01 92 1016.6
20200530073320 78 136 0.0 0.9 0.00 0.01 0.01 92 1016.6